Back to catalog

CZ-6A DEB

AliveSSO
NORAD 54400·DEBRIS·🇨🇳 China

Launched Nov 11, 2022 from Taiyuan Satellite Launch Center

Loading…

Next Passes (next 24 hours)

TLE

FreshSource: Space-Track

Epoch: Sep 14, 2026, 22:01 UTC

1 54400U 22151DY  26257.91781501  .00001623  00000-0  31350-3 0  9995
2 54400  98.5705 329.2059 0118657 319.8045  39.4423 14.60557060203595

Track CZ-6A DEB in real time with AllMySat

Download on the App Store